Вернуться в каталог

FLOCK 4G 9

АктивенНаукаSSO
NORAD 62622·PAYLOAD·🇺🇸 United States

Запущен Jan 14, 2025 с Vandenberg Space Force Base

Loading…

Ближайшие Пролёты (ближайшие 24 часа)

TLE

СвежийSource: CelesTrak SupGP

Эпоха: Sep 14, 2026, 06:45 UTC

1 62622C 25009P   26257.28131944  .00011813  00000+0  41527-3 0  2570
2 62622  97.3907 337.6334 0004753  28.8111 274.2143 15.29408057    19

Отслеживайте FLOCK 4G 9 в реальном времени с AllMySat

Download on the App Store